Location: Sternwarte Hubelmatt
(47.0367°N, 8.3053°E)
Time: 06:59:02
(UTC+02:00)

O/OREOS (USA 219) - Visible Passes

Search period start: 16 April 2024 00:00
Search period end: 26 April 2024 00:00
Orbit: 621 x 646 km, 72.0° (Epoch: 22 May)

Date Brightness Start Highest point End Pass type
(mag) Time Alt. Az. Time Alt. Az. Time Alt. Az.
16 Apr ? 05:34:48 10° NNW 05:39:04 38° ENE 05:43:15 10° SE visible
16 Apr ? 21:29:11 10° SW 21:33:32 42° WNW 21:37:54 10° NNE visible
17 Apr ? 04:18:51 10° NNE 04:21:01 13° NE 04:23:10 10° ENE visible
17 Apr ? 05:56:42 10° NNW 06:01:14 79° ENE 06:05:42 10° SSE visible
17 Apr ? 21:52:15 10° WSW 21:55:53 23° NW 21:59:31 10° N visible
18 Apr ? 04:39:56 10° N 04:43:33 23° NE 04:47:07 10° ESE visible
18 Apr ? 22:16:15 10° WNW 22:18:25 13° NW 22:20:36 10° NNW visible
19 Apr ? 05:01:35 10° NNW 05:05:54 42° ENE 05:10:09 10° SE visible
19 Apr ? 20:56:06 10° SW 21:00:23 38° WNW 21:04:40 10° NNE visible
20 Apr ? 03:45:28 10° NNE 03:47:54 14° NE 03:50:19 10° ENE visible
20 Apr ? 05:23:30 10° NNW 05:28:03 87° ENE 05:32:31 10° SSE visible
20 Apr ? 21:19:16 10° W 21:22:45 21° NW 21:26:14 10° N visible
21 Apr ? 04:06:41 10° N 04:10:24 25° NE 04:14:06 10° ESE visible
21 Apr ? 05:45:44 10° NW 05:50:00 44° WSW 05:54:14 10° S visible
21 Apr ? 21:43:29 10° WNW 21:45:19 12° NW 21:47:09 10° NNW visible
22 Apr ? 04:28:21 10° NNW 04:32:43 46° ENE 04:37:02 10° SE visible
23 Apr ? 03:12:07 10° N 03:14:47 15° NE 03:17:26 10° E visible
23 Apr ? 04:50:19 10° NNW 04:54:51 85° WSW 04:59:19 10° SSE visible
24 Apr ? 03:33:25 10° N 03:37:15 27° NE 03:41:04 10° ESE visible
24 Apr ? 05:12:36 10° NW 05:16:47 39° WSW 05:20:56 10° S visible
24 Apr ? 21:10:48 10° WNW 21:12:12 11° NW 21:13:37 10° NNW visible
25 Apr ? 03:55:08 10° NNW 03:59:33 51° ENE 04:03:54 10° SE visible
25 Apr ? 05:35:24 10° WNW 05:38:33 19° W 05:41:42 10° SW visible
